Time,TemperatureF,DewpointF,PressureIn,WindDirection,WindDirectionDegrees,WindSpeedMPH,WindSpeedGustMPH,Humidity,HourlyPrecipIn,Conditions,Clouds,dailyrainin,SoftwareType,DateUTC
2013-03-15 00:03:00,38.0,27.0,-100.00,SSW,210,6.0,11.0,64,0.00,,,-99.99,,2013-03-15 04:03:00,
2013-03-15 00:13:00,38.0,27.0,-100.00,SSW,210,6.0,11.0,64,0.00,,,-99.99,,2013-03-15 04:13:00,
2013-03-15 00:23:00,37.0,27.0,-100.00,SSW,205,4.0,9.0,68,0.00,,,-99.99,,2013-03-15 04:23:00,
2013-03-15 00:33:00,37.0,28.0,-100.00,SW,230,3.0,6.0,70,0.00,,,-99.99,,2013-03-15 04:33:00,
2013-03-15 00:43:00,36.0,28.0,-100.00,SW,215,4.0,6.0,71,0.00,,,-99.99,,2013-03-15 04:43:00,
2013-03-15 00:53:00,36.0,28.0,-100.00,SSW,210,3.0,6.0,72,0.00,,,-99.99,,2013-03-15 04:53:00,
2013-03-15 01:02:00,36.0,28.0,-100.00,SW,220,3.0,7.0,73,0.00,,,-99.99,,2013-03-15 05:02:00,
2013-03-15 01:12:00,36.0,28.0,-100.00,SW,220,2.0,6.0,73,0.00,,,-99.99,,2013-03-15 05:12:00,
2013-03-15 01:22:00,36.0,28.0,-100.00,SW,230,2.0,4.0,74,0.00,,,-99.99,,2013-03-15 05:22:00,
2013-03-15 01:32:00,35.0,28.0,-100.00,SSW,195,2.0,6.0,75,0.00,,,-99.99,,2013-03-15 05:32:00,
2013-03-15 01:42:00,35.0,28.0,-100.00,SSW,195,2.0,6.0,75,0.00,,,-99.99,,2013-03-15 05:42:00,
2013-03-15 01:52:00,35.0,29.0,-100.00,SSW,195,2.0,6.0,77,0.00,,,-99.99,,2013-03-15 05:52:00,
2013-03-15 02:02:00,35.0,29.0,-100.00,SSW,200,2.0,4.0,78,0.00,,,-99.99,,2013-03-15 06:02:00,
2013-03-15 02:12:00,35.0,29.0,-100.00,SSW,195,2.0,5.0,78,0.00,,,-99.99,,2013-03-15 06:12:00,
2013-03-15 02:22:00,35.0,29.0,-100.00,South,180,1.0,4.0,78,0.00,,,-99.99,,2013-03-15 06:22:00,
2013-03-15 02:32:00,35.0,29.0,-100.00,South,175,2.0,6.0,79,0.00,,,-99.99,,2013-03-15 06:32:00,
2013-03-15 02:42:00,35.0,29.0,-100.00,SW,225,1.0,4.0,80,0.00,,,-99.99,,2013-03-15 06:42:00,
2013-03-15 02:52:00,34.0,29.0,-100.00,SSW,210,1.0,2.0,80,0.00,,,-99.99,,2013-03-15 06:52:00,
2013-03-15 03:02:00,34.0,29.0,-100.00,SW,215,1.0,3.0,81,0.00,,,-99.99,,2013-03-15 07:02:00,
2013-03-15 03:12:00,34.0,29.0,-100.00,SSW,210,0.0,1.0,81,0.00,,,-99.99,,2013-03-15 07:12:00,
2013-03-15 03:22:00,33.0,29.0,-100.00,WSW,240,0.0,1.0,82,0.00,,,-99.99,,2013-03-15 07:22:00,
2013-03-15 03:32:00,33.0,29.0,-100.00,South,185,1.0,3.0,83,0.00,,,-99.99,,2013-03-15 07:32:00,
2013-03-15 03:42:00,33.0,28.0,-100.00,SW,225,0.0,1.0,83,0.00,,,-99.99,,2013-03-15 07:42:00,
2013-03-15 03:52:00,32.0,28.0,-100.00,WSW,245,1.0,3.0,84,0.00,,,-99.99,,2013-03-15 07:52:00,
2013-03-15 04:02:00,32.0,28.0,-100.00,SW,215,1.0,2.0,84,0.00,,,-99.99,,2013-03-15 08:02:00,
2013-03-15 04:12:00,32.0,28.0,-100.00,SW,215,1.0,3.0,85,0.00,,,-99.99,,2013-03-15 08:12:00,
2013-03-15 04:23:00,31.0,28.0,-100.00,SW,220,1.0,2.0,86,0.00,,,-99.99,,2013-03-15 08:23:00,
2013-03-15 04:33:00,31.0,28.0,-100.00,WNW,295,0.0,1.0,86,0.00,,,-99.99,,2013-03-15 08:33:00,
2013-03-15 04:42:00,31.0,28.0,-100.00,SW,225,1.0,3.0,86,0.00,,,-99.99,,2013-03-15 08:42:00,
2013-03-15 04:52:00,31.0,28.0,-100.00,ESE,105,0.0,2.0,86,0.00,,,-99.99,,2013-03-15 08:52:00,
2013-03-15 05:02:00,31.0,28.0,-100.00,SW,235,1.0,4.0,86,0.00,,,-99.99,,2013-03-15 09:02:00,
2013-03-15 05:12:00,32.0,28.0,-100.00,SW,230,0.0,2.0,86,0.00,,,-99.99,,2013-03-15 09:12:00,
2013-03-15 05:22:00,32.0,28.0,-100.00,WSW,255,1.0,3.0,86,0.00,,,-99.99,,2013-03-15 09:22:00,
2013-03-15 05:33:00,32.0,28.0,-100.00,SW,235,1.0,4.0,86,0.00,,,-99.99,,2013-03-15 09:33:00,
2013-03-15 05:43:00,31.0,28.0,-100.00,SW,235,3.0,6.0,87,0.00,,,-99.99,,2013-03-15 09:43:00,
2013-03-15 05:52:00,32.0,28.0,-100.00,WSW,250,1.0,3.0,87,0.00,,,-99.99,,2013-03-15 09:52:00,
2013-03-15 06:03:00,31.0,28.0,-100.00,West,260,0.0,3.0,87,0.00,,,-99.99,,2013-03-15 10:03:00,
2013-03-15 06:12:00,31.0,28.0,-100.00,NE,55,1.0,5.0,87,0.00,,,-99.99,,2013-03-15 10:12:00,
2013-03-15 06:23:00,31.0,28.0,-100.00,NE,55,0.0,4.0,87,0.00,,,-99.99,,2013-03-15 10:23:00,
2013-03-15 06:33:00,31.0,28.0,-100.00,West,280,1.0,5.0,87,0.00,,,-99.99,,2013-03-15 10:33:00,
2013-03-15 06:42:00,31.0,27.0,-100.00,WSW,240,1.0,4.0,87,0.00,,,-99.99,,2013-03-15 10:42:00,
2013-03-15 06:52:00,31.0,28.0,-100.00,West,265,0.0,2.0,87,0.00,,,-99.99,,2013-03-15 10:52:00,
2013-03-15 07:03:00,31.0,28.0,-100.00,NNE,25,0.0,3.0,87,0.00,,,-99.99,,2013-03-15 11:03:00,
2013-03-15 07:12:00,30.0,27.0,-100.00,WSW,240,2.0,5.0,87,0.00,,,-99.99,,2013-03-15 11:12:00,
2013-03-15 07:23:00,30.0,27.0,-100.00,WSW,250,1.0,6.0,88,0.00,,,-99.99,,2013-03-15 11:23:00,
2013-03-15 07:32:00,30.0,27.0,-100.00,SW,230,1.0,4.0,87,0.00,,,-99.99,,2013-03-15 11:32:00,
2013-03-15 07:42:00,31.0,28.0,-100.00,SW,225,1.0,4.0,88,0.00,,,-99.99,,2013-03-15 11:42:00,
2013-03-15 07:52:00,31.0,28.0,-100.00,WNW,285,1.0,4.0,88,0.00,,,-99.99,,2013-03-15 11:52:00,
2013-03-15 08:02:00,30.0,27.0,-100.00,SW,225,1.0,3.0,88,0.00,,,-99.99,,2013-03-15 12:02:00,
2013-03-15 08:12:00,30.0,27.0,-100.00,WSW,240,2.0,6.0,88,0.00,,,-99.99,,2013-03-15 12:12:00,
2013-03-15 08:23:00,30.0,27.0,-100.00,SW,235,3.0,6.0,88,0.00,,,-99.99,,2013-03-15 12:23:00,
2013-03-15 08:32:00,30.0,27.0,-100.00,WSW,240,2.0,6.0,89,0.00,,,-99.99,,2013-03-15 12:32:00,
2013-03-15 08:42:00,30.0,28.0,-100.00,SW,225,2.0,6.0,89,0.00,,,-99.99,,2013-03-15 12:42:00,
2013-03-15 08:52:00,31.0,28.0,-100.00,SW,235,2.0,7.0,89,0.00,,,-99.99,,2013-03-15 12:52:00,
2013-03-15 09:02:00,31.0,28.0,-100.00,SSW,205,1.0,4.0,88,0.00,,,-99.99,,2013-03-15 13:02:00,
2013-03-15 09:12:00,32.0,29.0,-100.00,South,190,1.0,4.0,89,0.00,,,-99.99,,2013-03-15 13:12:00,
2013-03-15 09:22:00,33.0,30.0,-100.00,South,185,1.0,4.0,88,0.00,,,-99.99,,2013-03-15 13:22:00,
2013-03-15 09:32:00,33.0,30.0,-100.00,SSW,195,2.0,7.0,88,0.00,,,-99.99,,2013-03-15 13:32:00,
2013-03-15 09:42:00,34.0,30.0,-100.00,South,185,2.0,6.0,87,0.00,,,-99.99,,2013-03-15 13:42:00,
2013-03-15 09:52:00,34.0,30.0,-100.00,SSW,195,2.0,6.0,86,0.00,,,-99.99,,2013-03-15 13:52:00,
2013-03-15 10:02:00,34.0,30.0,-100.00,SSE,165,3.0,7.0,85,0.00,,,-99.99,,2013-03-15 14:02:00,
2013-03-15 10:12:00,35.0,31.0,-100.00,South,180,4.0,7.0,83,0.00,,,-99.99,,2013-03-15 14:12:00,
2013-03-15 10:22:00,35.0,31.0,-100.00,South,180,4.0,7.0,83,0.00,,,-99.99,,2013-03-15 14:22:00,
2013-03-15 10:32:00,36.0,31.0,-100.00,South,170,2.0,6.0,81,0.00,,,-99.99,,2013-03-15 14:32:00,
2013-03-15 10:42:00,37.0,31.0,-100.00,SW,235,4.0,6.0,81,0.00,,,-99.99,,2013-03-15 14:42:00,
2013-03-15 10:52:00,37.0,31.0,-100.00,South,185,3.0,6.0,79,0.00,,,-99.99,,2013-03-15 14:52:00,
2013-03-15 11:02:00,37.0,31.0,-100.00,South,185,3.0,6.0,79,0.00,,,-99.99,,2013-03-15 15:02:00,
2013-03-15 11:13:00,38.0,32.0,-100.00,SSW,200,2.0,5.0,77,0.00,,,-99.99,,2013-03-15 15:13:00,
2013-03-15 11:23:00,39.0,32.0,-100.00,SSE,150,2.0,4.0,76,0.00,,,-99.99,,2013-03-15 15:23:00,
2013-03-15 11:33:00,39.0,32.0,-100.00,SSE,150,2.0,4.0,76,0.00,,,-99.99,,2013-03-15 15:33:00,
2013-03-15 11:43:00,39.0,32.0,-100.00,SW,215,2.0,5.0,75,0.00,,,-99.99,,2013-03-15 15:43:00,
2013-03-15 11:52:00,40.0,33.0,-100.00,South,180,3.0,6.0,75,0.00,,,-99.99,,2013-03-15 15:52:00,
2013-03-15 12:03:00,40.0,33.0,-100.00,SSW,210,4.0,7.0,73,0.00,,,-99.99,,2013-03-15 16:03:00,
2013-03-15 12:13:00,42.0,33.0,-100.00,South,185,1.0,4.0,72,0.00,,,-99.99,,2013-03-15 16:13:00,
2013-03-15 12:23:00,42.0,34.0,-100.00,ENE,60,2.0,5.0,72,0.00,,,-99.99,,2013-03-15 16:23:00,
2013-03-15 12:32:00,43.0,34.0,-100.00,South,175,1.0,6.0,70,0.00,,,-99.99,,2013-03-15 16:32:00,
2013-03-15 12:42:00,43.0,34.0,-100.00,South,175,2.0,4.0,70,0.00,,,-99.99,,2013-03-15 16:42:00,
2013-03-15 12:52:00,44.0,34.0,-100.00,SSE,165,2.0,6.0,67,0.00,,,-99.99,,2013-03-15 16:52:00,
2013-03-15 13:02:00,44.0,34.0,-100.00,SW,215,2.0,6.0,67,0.00,,,-99.99,,2013-03-15 17:02:00,
2013-03-15 13:12:00,45.0,34.0,-100.00,SW,230,1.0,6.0,66,0.00,,,-99.99,,2013-03-15 17:12:00,
2013-03-15 13:22:00,45.0,34.0,-100.00,SE,135,2.0,5.0,64,0.00,,,-99.99,,2013-03-15 17:22:00,
2013-03-15 13:32:00,46.0,34.0,-100.00,SSW,195,1.0,4.0,64,0.00,,,-99.99,,2013-03-15 17:32:00,
2013-03-15 13:42:00,46.0,34.0,-100.00,South,180,1.0,5.0,63,0.00,,,-99.99,,2013-03-15 17:42:00,
2013-03-15 13:52:00,47.0,34.0,-100.00,South,185,2.0,6.0,61,0.00,,,-99.99,,2013-03-15 17:52:00,
2013-03-15 14:03:00,47.0,35.0,-100.00,SSE,160,2.0,5.0,61,0.00,,,-99.99,,2013-03-15 18:03:00,
2013-03-15 14:12:00,47.0,35.0,-100.00,SSE,160,2.0,5.0,61,0.00,,,-99.99,,2013-03-15 18:12:00,
2013-03-15 14:22:00,48.0,35.0,-100.00,SSE,150,2.0,6.0,60,0.00,,,-99.99,,2013-03-15 18:22:00,
2013-03-15 14:32:00,48.0,35.0,-100.00,SSE,165,3.0,6.0,59,0.00,,,-99.99,,2013-03-15 18:32:00,
2013-03-15 14:42:00,48.0,35.0,-100.00,SSE,165,3.0,6.0,59,0.00,,,-99.99,,2013-03-15 18:42:00,
2013-03-15 14:53:00,48.0,35.0,-100.00,SSE,165,3.0,6.0,59,0.00,,,-99.99,,2013-03-15 18:53:00,
2013-03-15 15:02:00,49.0,35.0,-100.00,South,170,4.0,6.0,56,0.00,,,-99.99,,2013-03-15 19:02:00,
2013-03-15 15:12:00,50.0,35.0,-100.00,South,185,4.0,7.0,55,0.00,,,-99.99,,2013-03-15 19:12:00,
2013-03-15 15:23:00,50.0,35.0,-100.00,South,175,3.0,6.0,55,0.00,,,-99.99,,2013-03-15 19:23:00,
2013-03-15 15:32:00,50.0,35.0,-100.00,SE,145,2.0,7.0,55,0.00,,,-99.99,,2013-03-15 19:32:00,
2013-03-15 15:42:00,51.0,36.0,-100.00,SE,145,2.0,7.0,55,0.00,,,-99.99,,2013-03-15 19:42:00,
2013-03-15 15:52:00,51.0,35.0,-100.00,South,175,2.0,6.0,54,0.00,,,-99.99,,2013-03-15 19:52:00,
2013-03-15 16:02:00,51.0,35.0,-100.00,South,180,2.0,6.0,54,0.00,,,-99.99,,2013-03-15 20:02:00,
2013-03-15 16:12:00,52.0,36.0,-100.00,SSW,195,2.0,6.0,54,0.00,,,-99.99,,2013-03-15 20:12:00,
2013-03-15 16:22:00,52.0,36.0,-100.00,South,190,4.0,7.0,52,0.00,,,-99.99,,2013-03-15 20:22:00,
2013-03-15 16:32:00,53.0,36.0,-100.00,South,185,1.0,6.0,51,0.00,,,-99.99,,2013-03-15 20:32:00,
2013-03-15 16:42:00,53.0,36.0,-100.00,SSW,210,2.0,6.0,52,0.00,,,-99.99,,2013-03-15 20:42:00,
2013-03-15 16:52:00,54.0,36.0,-100.00,South,175,2.0,6.0,50,0.00,,,-99.99,,2013-03-15 20:52:00,
2013-03-15 17:02:00,54.0,37.0,-100.00,South,175,2.0,6.0,50,0.00,,,-99.99,,2013-03-15 21:02:00,
2013-03-15 17:12:00,55.0,37.0,-100.00,South,170,3.0,6.0,50,0.00,,,-99.99,,2013-03-15 21:12:00,
2013-03-15 17:22:00,55.0,37.0,-100.00,East,90,2.0,10.0,50,0.00,,,-99.99,,2013-03-15 21:22:00,
2013-03-15 17:33:00,55.0,37.0,-100.00,East,90,2.0,10.0,50,0.00,,,-99.99,,2013-03-15 21:33:00,
2013-03-15 17:43:00,55.0,37.0,-100.00,SSW,205,2.0,7.0,50,0.00,,,-99.99,,2013-03-15 21:43:00,
2013-03-15 17:52:00,55.0,36.0,-100.00,WSW,255,4.0,10.0,48,0.00,,,-99.99,,2013-03-15 21:52:00,
2013-03-15 18:04:00,56.0,37.0,-100.00,SW,225,3.0,6.0,48,0.00,,,-99.99,,2013-03-15 22:04:00,
2013-03-15 18:14:00,55.0,36.0,-100.00,WSW,245,4.0,9.0,48,0.00,,,-99.99,,2013-03-15 22:14:00,
2013-03-15 18:22:00,55.0,36.0,-100.00,WSW,240,2.0,9.0,48,0.00,,,-99.99,,2013-03-15 22:22:00,
2013-03-15 18:32:00,55.0,37.0,-100.00,SW,235,2.0,6.0,50,0.00,,,-99.99,,2013-03-15 22:32:00,
2013-03-15 18:42:00,55.0,36.0,-100.00,SW,235,3.0,6.0,49,0.00,,,-99.99,,2013-03-15 22:42:00,
2013-03-15 18:52:00,55.0,37.0,-100.00,SW,235,1.0,6.0,50,0.00,,,-99.99,,2013-03-15 22:52:00,
2013-03-15 19:03:00,55.0,36.0,-100.00,WSW,245,1.0,4.0,49,0.00,,,-99.99,,2013-03-15 23:03:00,
2013-03-15 19:22:00,53.0,37.0,-100.00,WSW,255,1.0,6.0,54,0.00,,,-99.99,,2013-03-15 23:22:00,
2013-03-15 19:32:00,54.0,37.0,-100.00,WSW,240,1.0,6.0,52,0.00,,,-99.99,,2013-03-15 23:32:00,
2013-03-15 19:42:00,53.0,37.0,-100.00,SE,145,1.0,4.0,52,0.00,,,-99.99,,2013-03-15 23:42:00,
2013-03-15 19:52:00,52.0,39.0,-100.00,SSE,165,1.0,4.0,60,0.00,,,-99.99,,2013-03-15 23:52:00,
2013-03-15 20:03:00,52.0,39.0,-100.00,SW,225,1.0,4.0,60,0.00,,,-99.99,,2013-03-16 00:03:00,
2013-03-15 20:12:00,51.0,39.0,-100.00,SW,230,1.0,3.0,61,0.00,,,-99.99,,2013-03-16 00:12:00,
2013-03-15 20:22:00,51.0,39.0,-100.00,SE,130,0.0,4.0,64,0.00,,,-99.99,,2013-03-16 00:22:00,
2013-03-15 20:32:00,51.0,39.0,-100.00,WNW,285,1.0,3.0,63,0.00,,,-99.99,,2013-03-16 00:32:00,
2013-03-15 20:42:00,51.0,38.0,-100.00,SW,235,1.0,3.0,60,0.00,,,-99.99,,2013-03-16 00:42:00,
2013-03-15 20:52:00,51.0,38.0,-100.00,NE,45,2.0,5.0,61,0.00,,,-99.99,,2013-03-16 00:52:00,
2013-03-15 21:03:00,49.0,39.0,-100.00,NE,35,1.0,4.0,67,0.00,,,-99.99,,2013-03-16 01:03:00,
2013-03-15 21:12:00,49.0,39.0,-100.00,NW,320,0.0,2.0,68,0.00,,,-99.99,,2013-03-16 01:12:00,
2013-03-15 21:22:00,49.0,38.0,-100.00,NNW,335,1.0,2.0,67,0.00,,,-99.99,,2013-03-16 01:22:00,
2013-03-15 21:32:00,49.0,38.0,-100.00,NNW,335,1.0,2.0,67,0.00,,,-99.99,,2013-03-16 01:32:00,
2013-03-15 21:42:00,49.0,38.0,-100.00,NNW,335,1.0,2.0,67,0.00,,,-99.99,,2013-03-16 01:42:00,
2013-03-15 21:52:00,48.0,38.0,-100.00,North,5,1.0,6.0,67,0.00,,,-99.99,,2013-03-16 01:52:00,
2013-03-15 22:02:00,47.0,38.0,-100.00,North,10,1.0,4.0,71,0.00,,,-99.99,,2013-03-16 02:02:00,
2013-03-15 22:13:00,47.0,38.0,-100.00,North,0,1.0,4.0,71,0.00,,,-99.99,,2013-03-16 02:13:00,
2013-03-15 22:23:00,47.0,39.0,-100.00,NE,45,0.0,2.0,72,0.00,,,-99.99,,2013-03-16 02:23:00,
2013-03-15 22:33:00,48.0,39.0,-100.00,North,5,0.0,2.0,70,0.00,,,-99.99,,2013-03-16 02:33:00,
2013-03-15 22:42:00,48.0,39.0,-100.00,ENE,60,1.0,2.0,70,0.00,,,-99.99,,2013-03-16 02:42:00,
2013-03-15 22:52:00,48.0,38.0,-100.00,North,0,0.0,4.0,68,0.00,,,-99.99,,2013-03-16 02:52:00,
2013-03-15 23:02:00,48.0,38.0,-100.00,NE,55,1.0,1.0,68,0.00,,,-99.99,,2013-03-16 03:02:00,
2013-03-15 23:12:00,46.0,38.0,-100.00,NNW,340,0.0,2.0,71,0.00,,,-99.99,,2013-03-16 03:12:00,
2013-03-15 23:22:00,47.0,38.0,-100.00,West,275,0.0,2.0,71,0.00,,,-99.99,,2013-03-16 03:22:00,
2013-03-15 23:32:00,47.0,38.0,-100.00,NW,310,1.0,2.0,70,0.00,,,-99.99,,2013-03-16 03:32:00,
2013-03-15 23:43:00,46.0,38.0,-100.00,North,10,1.0,3.0,71,0.00,,,-99.99,,2013-03-16 03:43:00,
2013-03-15 23:52:00,47.0,38.0,-100.00,NNW,335,1.0,2.0,72,0.00,,,-99.99,,2013-03-16 03:52:00,